Feather Falls, CA

6:13 PM PST on February 06, 2016 (GMT -0800)
Oroville Municipal

Weather History for KOVE - October, 2013

Change the Weather History Date:

Thursday, October 3, 2013

  Actual Average Record
Temperature  
Mean Temperature 64 °F -  
Max Temperature 77 °F 83 °F 99 °F (1958)
Min Temperature 52 °F 51 °F 42 °F (1954)
Growing Degree Days 14 (Base 50)    
Moisture  
Dew Point 29 °F    
Average Humidity 31    
Maximum Humidity 53    
Minimum Humidity 11    
Precipitation  
Precipitation 0.00 in - - ()
Sea Level Pressure  
Sea Level Pressure 30.05 in    
Wind  
Wind Speed 11 mph (NNW)    
Max Wind Speed 22 mph    
Max Gust Speed 32 mph    
Visibility 10 miles    
Events      
Averages and records for this station are not official NWS values.
T = Trace of Precipitation, MM = Missing Value Source: NWS Daily Summary

Daily Weather History Graph

Daily Weather History Graph

Search for Another Location

Airport or City:

Trip Planner

Search our weather history database for the weather conditions in past years. The results will help you decide how hot, cold, wet, or windy it might be!

Date:

Astronomy

Oct. 03, 2013 Rise Set
Actual Time 7:04 AM PDT 6:45 PM PDT
Civil Twilight 6:38 AM PDT 7:12 PM PDT
Nautical Twilight 6:06 AM PDT 7:43 PM PDT
Astronomical Twilight 5:35 AM PDT 8:14 PM PDT
Moon 5:43 AM PDT (10/3) 5:56 PM PDT (10/3)
Length of Visible Light 12h 33m
Length of Day
11h 40m
Waning Crescent, 2% of the Moon is Illuminated
Oct 3
Waning Crescent
Oct 4
New
Oct 11
First Quarter
Oct 18
Full
Oct 26
Last Quarter

Hourly Weather History & Observations

Time (PDT) Temp. Dew Point Humidity Pressure Visibility Wind Dir Wind Speed Gust Speed Precip Events Conditions
12:53 AM 57.9 °F 37.9 °F 47% 30.01 in 10.0 mi NNW 12.7 mph 18.4 mph N/A   Clear
1:53 AM 55.0 °F 37.9 °F 53% 30.01 in 10.0 mi NW 5.8 mph - N/A   Clear
2:53 AM 55.0 °F 37.0 °F 51% 30.02 in 10.0 mi NNW 4.6 mph - N/A   Clear
3:53 AM 54.0 °F 36.0 °F 51% 30.03 in 10.0 mi NNW 9.2 mph - N/A   Clear
4:53 AM 54.0 °F 35.1 °F 49% 30.02 in 10.0 mi NNW 9.2 mph - N/A   Clear
5:53 AM 52.0 °F 35.1 °F 53% 30.03 in 10.0 mi NNW 9.2 mph - N/A   Clear
6:53 AM 52.0 °F 34.0 °F 50% 30.04 in 10.0 mi NW 10.4 mph 18.4 mph N/A   Clear
7:53 AM 53.1 °F 35.1 °F 50% 30.07 in 10.0 mi NNW 11.5 mph 21.9 mph N/A   Clear
8:53 AM 57.0 °F 35.1 °F 44% 30.08 in 10.0 mi NW 10.4 mph 23.0 mph N/A   Clear
9:53 AM 63.0 °F 35.1 °F 35% 30.08 in 10.0 mi NW 15.0 mph 23.0 mph N/A   Clear
10:53 AM 68.0 °F 32.0 °F 26% 30.07 in 10.0 mi NW 11.5 mph 23.0 mph N/A   Clear
11:53 AM 71.1 °F 30.9 °F 23% 30.06 in 10.0 mi NNW 10.4 mph 27.6 mph N/A   Clear
12:53 PM 73.0 °F 24.1 °F 16% 30.04 in 10.0 mi North 9.2 mph 20.7 mph N/A   Clear
1:53 PM 75.0 °F 25.0 °F 16% 30.02 in 10.0 mi North 11.5 mph 25.3 mph N/A   Clear
2:53 PM 75.9 °F 23.0 °F 14% 30.01 in 10.0 mi North 21.9 mph 31.1 mph N/A   Clear
3:53 PM 77.0 °F 19.9 °F 12% 30.02 in 10.0 mi North 17.3 mph 28.8 mph N/A   Clear
4:53 PM 75.9 °F 17.1 °F 11% 30.02 in 10.0 mi North 21.9 mph 32.2 mph N/A   Clear
5:53 PM 73.9 °F 18.0 °F 12% 30.03 in 10.0 mi North 12.7 mph - N/A   Clear
6:53 PM 72.0 °F 21.0 °F 15% 30.05 in 10.0 mi NE 13.8 mph 23.0 mph N/A   Clear
7:53 PM 71.1 °F 19.9 °F 14% 30.07 in 10.0 mi NNE 13.8 mph - N/A   Clear
9:53 PM 64.0 °F 26.1 °F 24% 30.11 in 10.0 mi North 9.2 mph - N/A   Clear
10:53 PM 64.0 °F 28.0 °F 26% 30.12 in 10.0 mi North 6.9 mph - N/A   Clear
11:53 PM 64.9 °F 27.0 °F 24% 30.12 in 10.0 mi North 12.7 mph 21.9 mph N/A   Clear